Location: Hawaiian Village Mobile Home Park
(32.8359°N, 116.9792°W)
Time: 03:35:33
(UTC+00:00)

ADEOS - Pass Details

Date: 02 December 2021
Orbit: 792 x 795 km, 98.9° (Epoch: 23 January)

Event Time Altitude Azimuth Distance (km) Brightness Sun altitude
Rises 13:48:00 0° 4° (N) 3,300 6.6 -9.6°
Reaches altitude 10° 13:50:26 10° 358° (N) 2,367 5.8 -9.2°
Maximum altitude 13:55:19 42° 289° (WNW) 1,125 3.9 -8.2°
Drops below altitude 10° 14:00:11 10° 219° (SW) 2,352 5.9 -7.3°
Sets 14:02:36 0° 212° (SSW) 3,278 6.7 -6.8°
